Weather History for KLNK - February, 2014

Change the Weather History Date:

Tuesday, February 11, 2014

  Actual Average Record
Temperature  
Mean Temperature 11 °F 28 °F  
Max Temperature 21 °F 39 °F 75 °F (1951)
Min Temperature 1 °F 17 °F -26 °F (1899)
Degree Days  
Heating Degree Days 54 37  
Month to date heating degree days 603 423  
Since 1 July heating degree days 4538 4120  
Cooling Degree Days 0 0  
Month to date cooling degree days 0 0  
Year to date cooling degree days 0 0  
Moisture  
Dew Point 5 °F    
Average Humidity 71    
Maximum Humidity 83    
Minimum Humidity 59    
Precipitation  
Precipitation 0.00 in 0.03 in 1.55 in (1965)
Month to date precipitation 0.30 0.29  
Year to date precipitation 0.54 0.93  
Snow  
Snow 0.00 in 0.20 in - ()
Month to date snowfall 5.1 2.4  
Since 1 July snowfall 14.7 16.5  
Snow Depth 2.00 in    
Sea Level Pressure  
Sea Level Pressure 30.34 in    
Wind  
Wind Speed 12 mph (South)    
Max Wind Speed 23 mph    
Max Gust Speed 28 mph    
Visibility 10 miles    
Events      
T = Trace of Precipitation, MM = Missing Value Source: NWS Daily Summary

Daily Weather History Graph

Daily Weather History Graph

Search for Another Location

Airport or City:

Trip Planner

Search our weather history database for the weather conditions in past years. The results will help you decide how hot, cold, wet, or windy it might be!

Date:

Astronomy

Feb. 11, 2014 Rise Set
Actual Time 7:26 AM CST 5:56 PM CST
Civil Twilight 6:57 AM CST 6:25 PM CST
Nautical Twilight 6:25 AM CST 6:57 PM CST
Astronomical Twilight 5:53 AM CST 7:29 PM CST
Moon 3:17 PM CST (2/11) 5:04 AM CST (2/11)
Length of Visible Light 11h 27m
Length of Day
10h 30m
Waxing Gibbous, 91% of the Moon is Illuminated
Feb 11
Waxing Gibbous
Feb 14
Full
Feb 22
Last Quarter
Mar 1
New
Mar 8
First Quarter

Hourly Weather History & Observations

Time (CST) Temp. Windchill Dew Point Humidity Pressure Visibility Wind Dir Wind Speed Gust Speed Precip Events Conditions
12:54 AM 1.9 °F -9.2 °F -4.0 °F 76% 30.53 in 9.0 mi NE 5.8 mph - N/A   Clear
1:54 AM 5.0 °F - -0.9 °F 76% 30.51 in 10.0 mi Calm Calm - N/A   Overcast
2:54 AM 7.0 °F -4.5 °F -0.0 °F 73% 30.52 in 9.0 mi South 6.9 mph - N/A   Overcast
3:54 AM 7.0 °F -5.7 °F -0.0 °F 73% 30.50 in 10.0 mi South 8.1 mph - N/A   Overcast
4:54 AM 8.1 °F -3.2 °F 1.0 °F 73% 30.49 in 9.0 mi South 6.9 mph - N/A   Overcast
5:54 AM 10.0 °F -0.9 °F 3.0 °F 73% 30.49 in 10.0 mi South 6.9 mph - N/A   Overcast
6:54 AM 10.9 °F -1.8 °F 3.0 °F 70% 30.47 in 10.0 mi South 9.2 mph - N/A   Overcast
7:54 AM 10.9 °F -3.4 °F 3.0 °F 70% 30.47 in 9.0 mi South 11.5 mph - N/A   Overcast
8:54 AM 12.0 °F -2.7 °F 3.0 °F 67% 30.46 in 10.0 mi South 12.7 mph - N/A   Overcast
9:54 AM 12.9 °F -2.2 °F 3.0 °F 65% 30.44 in 10.0 mi South 13.8 mph - N/A   Overcast
10:25 AM 14.0 °F -0.8 °F 3.0 °F 62% 30.36 in 10.0 mi South 13.8 mph - N/A   Overcast
10:54 AM 15.1 °F 1.1 °F 3.9 °F 61% 30.44 in 10.0 mi South 12.7 mph - N/A   Overcast
11:29 AM 16.0 °F 1.7 °F 5.0 °F 62% 30.35 in 10.0 mi South 13.8 mph - N/A   Overcast
11:54 AM 17.1 °F 3.0 °F 6.1 °F 62% 30.41 in 10.0 mi South 13.8 mph - N/A   Overcast
12:54 PM 19.0 °F 5.0 °F 8.1 °F 62% 30.36 in 10.0 mi South 15.0 mph - N/A   Overcast
1:54 PM 19.9 °F 5.7 °F 8.1 °F 60% 30.31 in 10.0 mi South 16.1 mph - N/A   Overcast
2:54 PM 19.9 °F 5.7 °F 8.1 °F 60% 30.27 in 10.0 mi South 16.1 mph - N/A   Overcast
3:54 PM 19.9 °F 3.9 °F 9.0 °F 62% 30.24 in 10.0 mi South 20.7 mph - N/A   Overcast
4:54 PM 19.9 °F 5.2 °F 9.0 °F 62% 30.23 in 10.0 mi South 17.3 mph - N/A   Overcast
5:26 PM 19.9 °F 4.3 °F 9.0 °F 62% 30.14 in 10.0 mi South 19.6 mph - N/A   Scattered Clouds
5:54 PM 19.0 °F 4.5 °F 8.1 °F 62% 30.21 in 10.0 mi South 16.1 mph - N/A   Clear
6:54 PM 17.1 °F 4.3 °F 7.0 °F 65% 30.21 in 10.0 mi South 11.5 mph - N/A   Clear
7:54 PM 15.1 °F 2.5 °F 7.0 °F 70% 30.20 in 10.0 mi South 10.4 mph - N/A   Clear
8:54 PM 15.1 °F 1.8 °F 6.1 °F 68% 30.18 in 10.0 mi South 11.5 mph - N/A   Clear
9:54 PM 17.1 °F 2.0 °F 6.1 °F 62% 30.18 in 10.0 mi South 16.1 mph - N/A   Clear
10:54 PM 18.0 °F 2.2 °F 7.0 °F 62% 30.15 in 10.0 mi South 18.4 mph - N/A   Overcast
11:54 PM 19.0 °F 6.1 °F 8.1 °F 62% 30.14 in 10.0 mi SSW 12.7 mph - N/A   Overcast